カタログに戻る

TIGER-8

運用中科学SSO
NORAD 59120·PAYLOAD·🇷🇼 Rwanda

打ち上げ Mar 4, 2024 から Vandenberg Space Force Base

Loading…

次のパス (今後24時間)

TLE

最新Source: Space-Track

元期: Sep 14, 2026, 09:05 UTC

1 59120U 24043Y   26257.37892399  .00008229  00000-0  16994-3 0  9995
2 59120  97.5657  49.6804 0006014 234.0815 125.9876 15.46109377141561

AllMySatでTIGER-8をリアルタイム追跡

Download on the App Store